Rolla, MO

7:50 PM CST on December 12, 2017 (GMT -0600)
Rolla National

Weather History for KVIH - June, 2014

Change the Weather History Date:

Monday, June 9, 2014

  Actual Average Record
Temperature  
Mean Temperature 67 °F 71 °F  
Max Temperature 71 °F 81 °F 97 °F (1953)
Min Temperature 62 °F 60 °F 46 °F (1902)
Degree Days  
Heating Degree Days 0 1  
Month to date heating degree days 0 9  
Since 1 June heating degree days 0 9  
Since 1 July heating degree days 5478 4843  
Cooling Degree Days 2 6  
Month to date cooling degree days 60 49  
Year to date cooling degree days 207 156  
Since 1 June cooling degree days 60 49  
Growing Degree Days 16 (Base 50)    
Moisture  
Dew Point 62 °F    
Average Humidity 83    
Maximum Humidity 93    
Minimum Humidity 73    
Precipitation  
Precipitation 1.08 in 0.15 in 1.42 in (2005)
Month to date precipitation 2.04 1.47  
Year to date precipitation 11.66 18.28  
Sea Level Pressure  
Sea Level Pressure 29.79 in    
Wind  
Wind Speed 10 mph (East)    
Max Wind Speed 17 mph    
Max Gust Speed 21 mph    
Visibility 5 miles    
Events Rain    
T = Trace of Precipitation, MM = Missing Value Source: NWS Daily Summary

Daily Weather History Graph

Daily Weather History Graph

Search for Another Location

Airport or City:

Trip Planner

Search our weather history database for the weather conditions in past years. The results will help you decide how hot, cold, wet, or windy it might be!

Date:

Astronomy

Jun. 09, 2014 Rise Set
Actual Time 5:43 AM CDT 8:29 PM CDT
Civil Twilight 5:12 AM CDT 9:00 PM CDT
Nautical Twilight 4:33 AM CDT 9:39 PM CDT
Astronomical Twilight 3:48 AM CDT 10:24 PM CDT
Moon 4:53 PM CDT (6/9) 3:07 AM CDT (6/9)
Length of Visible Light 15h 48m
Length of Day
14h 45m
Waxing Gibbous, 85% of the Moon is Illuminated
Jun 9
Waxing Gibbous
Jun 12
Full
Jun 19
Last Quarter
Jun 27
New
Jul 5
First Quarter

Hourly Weather History & Observations

Time (CDT) Temp. Dew Point Humidity Pressure Visibility Wind Dir Wind Speed Gust Speed Precip Events Conditions
12:27 AM 64.0 °F 62.1 °F 93% 29.96 in 8.0 mi Calm Calm - N/A   Overcast
12:53 AM 64.0 °F 62.1 °F 93% 29.94 in 10.0 mi Calm Calm - N/A   Overcast
1:09 AM 64.0 °F 61.0 °F 90% 29.95 in 10.0 mi Calm Calm - N/A   Overcast
1:23 AM 64.0 °F 61.0 °F 90% 29.95 in 9.0 mi ENE 3.5 mph - N/A   Overcast
1:53 AM 63.0 °F 61.0 °F 93% 29.92 in 10.0 mi NE 4.6 mph - N/A   Mostly Cloudy
2:53 AM 63.0 °F 60.1 °F 90% 29.90 in 10.0 mi ENE 5.8 mph - N/A   Scattered Clouds
3:40 AM 63.0 °F 61.0 °F 93% 29.90 in 9.0 mi ENE 5.8 mph - N/A   Mostly Cloudy
3:53 AM 63.0 °F 61.0 °F 93% 29.88 in 9.0 mi ENE 5.8 mph - N/A   Mostly Cloudy
4:53 AM 63.0 °F 61.0 °F 93% 29.86 in 7.0 mi East 6.9 mph - N/A   Mostly Cloudy
5:53 AM 63.0 °F 61.0 °F 93% 29.88 in 4.0 mi East 4.6 mph - 0.00 in Rain Light Rain
6:53 AM 63.0 °F 61.0 °F 93% 29.86 in 4.0 mi ESE 5.8 mph - 0.00 in   Overcast
7:53 AM 64.9 °F 62.1 °F 90% 29.88 in 6.0 mi SE 6.9 mph - N/A   Overcast
8:12 AM 64.9 °F 62.1 °F 90% 29.88 in 7.0 mi ESE 8.1 mph - N/A   Overcast
8:24 AM 66.0 °F 62.1 °F 87% 29.87 in 9.0 mi East 8.1 mph - N/A   Mostly Cloudy
8:53 AM 66.9 °F 62.1 °F 84% 29.85 in 10.0 mi ESE 8.1 mph - N/A   Overcast
9:53 AM 69.8 °F 60.8 °F 73% 29.89 in 10.0 mi SE 13.8 mph 20.7 mph N/A   Overcast
10:53 AM 66.9 °F 60.1 °F 79% 29.86 in 10.0 mi ESE 13.8 mph - N/A   Overcast
11:53 AM 68.0 °F 60.1 °F 76% 29.85 in 10.0 mi East 13.8 mph - N/A   Overcast
12:03 PM 70.0 °F 61.0 °F 73% 29.87 in 10.0 mi East 9.2 mph - N/A   Overcast
12:53 PM 68.0 °F 61.0 °F 78% 29.83 in 10.0 mi East 11.5 mph - N/A   Overcast
1:29 PM 68.0 °F 61.0 °F 78% 29.83 in 9.0 mi ESE 15.0 mph - N/A   Overcast
2:22 PM 70.0 °F 62.1 °F 76% 29.80 in 10.0 mi East 15.0 mph 21.9 mph N/A   Mostly Cloudy
2:53 PM 69.8 °F 62.6 °F 78% 29.79 in 10.0 mi East 12.7 mph - N/A   Overcast
3:20 PM 69.1 °F 62.1 °F 78% 29.78 in 10.0 mi East 10.4 mph - N/A   Overcast
3:53 PM 68.0 °F 63.0 °F 84% 29.75 in 5.0 mi East 9.2 mph - 0.00 in Rain Light Rain
4:02 PM 66.9 °F 63.0 °F 87% 29.77 in 1.8 mi East 9.2 mph - 0.03 in Rain Rain
4:36 PM 66.0 °F 64.0 °F 93% 29.77 in 1.8 mi East 8.1 mph - 0.14 in Rain Rain
4:51 PM 66.2 °F 64.4 °F 94% 29.76 in 2.0 mi East 12.7 mph - 0.16 in Rain Light Rain
4:53 PM 66.0 °F 64.0 °F 93% 29.75 in 2.0 mi East 12.7 mph - 0.16 in Rain Light Rain
5:03 PM 64.9 °F 64.0 °F 97% 29.76 in 1.5 mi East 11.5 mph - 0.04 in Rain Heavy Rain
5:19 PM 64.9 °F 63.0 °F 93% 29.76 in 2.0 mi East 8.1 mph - 0.09 in Rain Rain
5:26 PM 64.9 °F 64.0 °F 97% 29.75 in 2.0 mi East 8.1 mph - 0.11 in Rain Rain
5:28 PM 64.9 °F 64.0 °F 97% 29.75 in 1.8 mi East 8.1 mph - 0.12 in Rain Rain
5:39 PM 64.9 °F 64.0 °F 97% 29.75 in 2.0 mi East 11.5 mph - 0.14 in Rain Rain
5:48 PM 64.4 °F 62.6 °F 94% 29.75 in 2.5 mi East 12.7 mph 18.4 mph 0.14 in Rain Light Rain
5:53 PM 64.9 °F 63.0 °F 93% 29.73 in 3.0 mi East 9.2 mph - 0.15 in Rain Light Rain
6:07 PM 64.9 °F 63.0 °F 93% 29.75 in 1.8 mi East 11.5 mph - 0.04 in Rain Heavy Rain
6:53 PM 64.0 °F 62.1 °F 93% 29.72 in 1.8 mi East 11.5 mph - 0.40 in Rain Rain
7:00 PM 64.0 °F 62.1 °F 93% 29.73 in 2.0 mi ENE 15.0 mph - 0.01 in Rain Rain
7:07 PM 64.0 °F 62.1 °F 93% 29.74 in 1.5 mi East 11.5 mph 20.7 mph 0.06 in Rain Rain
7:39 PM 64.0 °F 62.1 °F 93% 29.74 in 2.0 mi ENE 11.5 mph - 0.17 in Rain Rain
7:53 PM 64.0 °F 62.1 °F 93% 29.72 in 2.0 mi East 11.5 mph 20.7 mph 0.19 in Rain Light Rain
8:35 PM 64.0 °F 63.0 °F 96% 29.72 in 3.0 mi East 13.8 mph 19.6 mph 0.07 in Rain Rain
8:53 PM 64.0 °F 63.0 °F 96% 29.70 in 3.0 mi East 10.4 mph - 0.08 in Rain Light Rain
9:03 PM 64.0 °F 63.0 °F 96% 29.72 in 2.0 mi East 12.7 mph - 0.03 in Rain Rain
9:15 PM 64.0 °F 63.0 °F 96% 29.72 in 3.0 mi East 11.5 mph - 0.03 in Rain Light Rain
9:18 PM 64.0 °F 63.0 °F 96% 29.72 in 2.5 mi East 10.4 mph - 0.03 in Rain Light Rain
9:33 PM 64.0 °F 63.0 °F 96% 29.72 in 3.0 mi East 11.5 mph - 0.04 in Rain Light Rain
9:42 PM 64.0 °F 63.0 °F 96% 29.72 in 2.0 mi East 10.4 mph - 0.06 in Rain Light Rain
9:51 PM 64.4 °F 62.6 °F 94% 29.72 in 4.0 mi East 12.7 mph - 0.06 in   Overcast
9:53 PM 64.0 °F 63.0 °F 96% 29.70 in 5.0 mi East 11.5 mph - 0.06 in   Overcast
10:06 PM 64.0 °F 63.0 °F 96% 29.72 in 5.0 mi East 9.2 mph - N/A   Overcast
10:49 PM 64.4 °F 62.6 °F 94% 29.72 in 7.0 mi East 12.7 mph - N/A   Overcast
10:53 PM 64.0 °F 63.0 °F 96% 29.70 in 7.0 mi East 11.5 mph - N/A   Overcast
11:41 PM 64.0 °F 62.1 °F 93% 29.71 in 4.0 mi East 10.4 mph - 0.01 in Rain Light Rain
11:53 PM 64.0 °F 62.1 °F 93% 29.69 in 3.0 mi East 10.4 mph - 0.03 in Rain Rain